Theta_e
308 304 304 298 294 297 290 289 288 292 298 305 310 312 317 321 323 323 326 332 331 332 333 338 340 341 341 343 342 342 343 344
309 306 304 301 301 293 289 287 285 292 295 297 302 308 311 316 318 321 325 332 332 332 332 339 341 343 343 343 342 342 343 343
304 300 300 299 297 295 293 291 288 287 292 304 304 308 310 312 314 319 326 330 332 332 333 336 342 344 344 343 343 342 344 343
301 306 307 302 302 294 291 290 290 289 292 308 307 311 311 314 316 320 326 331 332 332 332 334 340 343 344 344 345 344 346 344
297 301 304 302 303 302 299 294 292 288 294 308 312 312 316 314 319 321 324 329 330 331 331 333 340 343 345 346 346 347 346 345
292 296 300 299 302 302 299 295 294 298 301 305 308 310 313 313 315 322 323 325 329 329 329 337 340 342 345 346 348 348 347 345
301 305 305 304 304 302 300 300 296 301 300 305 307 310 312 315 318 322 320 325 329 328 329 333 338 341 346 347 348 349 348 346
298 305 304 301 305 306 304 306 302 304 304 313 314 313 314 317 319 322 322 323 331 333 332 333 337 339 345 346 348 349 348 347
289 298 299 295 302 302 302 304 304 300 305 313 314 316 314 316 320 319 320 321 324 335 336 336 337 340 341 346 348 348 347 347
289 291 285 296 304 304 304 308 312 313 314 313 316 318 316 317 317 319 320 322 330 335 336 336 339 340 343 344 345 346 346 345
287 287 292 296 301 303 300 302 316 314 319 320 323 321 319 325 322 322 326 322 332 334 333 338 338 342 343 343 344 344 344 347
288 286 286 298 306 310 307 297 314 317 315 315 318 312 317 322 323 323 323 324 326 327 331 339 341 346 344 344 345 346 347 348
292 290 295 305 307 310 296 298 316 318 316 315 311 314 318 327 327 326 325 328 330 326 324 325 338 347 345 346 345 348 349 348
290 288 289 308 306 300 305 310 317 316 316 315 316 318 318 324 325 321 322 325 328 326 326 327 329 336 344 345 347 350 348 347
295 294 303 306 306 308 309 310 313 314 317 317 316 317 318 319 322 323 324 328 329 321 322 328 329 331 335 343 348 346 344 340
295 299 302 306 308 308 309 309 312 315 317 317 313 314 315 317 319 320 325 327 328 325 323 325 326 330 339 346 346 344 339 337
295 300 304 307 307 308 309 310 312 314 315 316 314 313 314 314 314 317 323 330 326 324 322 325 326 328 333 345 344 341 339 338
294 301 300 304 309 310 309 309 311 312 312 314 315 313 312 312 314 316 322 325 325 325 324 324 324 326 330 343 344 341 338 338
301 305 305 307 309 310 309 309 310 309 310 310 312 315 314 313 313 315 321 325 327 327 326 324 325 328 327 341 344 340 338 338
Wind_Speed
6 3 12 6 3 9 5 1 3 5 10 12 4 6 7 14 9 13 12 17 21 19 17 19 20 20 20 18 16 16 16 12
14 2 2 9 4 1 2 1 5 6 6 7 5 5 7 8 11 12 13 17 17 18 18 17 20 19 18 18 19 17 16 12
4 3 8 1 5 1 6 6 7 3 7 7 7 6 7 9 10 11 17 19 18 17 19 16 18 18 18 17 16 15 14 13
10 6 6 5 3 5 6 7 2 3 9 3 6 12 9 5 8 9 14 17 17 17 17 15 19 18 19 17 16 16 15 13
10 10 6 6 1 3 4 4 4 4 7 4 9 10 8 11 3 9 9 13 13 14 17 18 18 18 18 17 17 15 14 14
5 7 2 6 2 4 3 2 3 5 9 11 8 4 7 11 14 6 8 1 11 16 16 16 18 18 18 16 16 14 15 14
5 6 5 4 8 7 6 7 6 9 9 11 8 1 2 3 7 4 6 8 7 8 12 13 16 16 16 14 14 14 14 13
5 6 5 8 8 5 2 4 3 7 7 3 1 5 8 4 5 2 10 7 9 8 9 13 18 18 16 15 15 15 14 15
6 4 8 5 2 4 4 2 4 4 5 4 1 7 2 1 4 6 6 9 6 12 15 16 18 18 17 16 14 14 14 12
6 2 5 7 6 5 7 2 2 5 6 6 5 6 7 5 6 8 6 6 7 3 6 7 8 13 11 13 14 14 12 9
4 5 5 6 6 6 5 4 9 3 5 7 4 2 3 4 6 8 7 7 5 7 6 7 9 7 10 12 13 13 13 13
2 4 5 1 11 11 3 2 10 8 10 11 10 4 4 10 7 10 10 9 9 10 11 4 11 13 12 12 12 12 12 12
3 2 1 6 9 10 1 5 3 5 4 5 5 3 10 11 15 12 4 3 5 1 6 8 6 12 15 13 15 11 8 7
2 1 5 7 6 6 6 3 1 1 1 2 5 8 4 9 12 11 7 5 2 4 5 6 5 6 8 13 9 12 10 9
2 5 3 3 4 3 9 5 6 3 3 5 5 5 6 5 5 7 8 8 2 5 6 5 5 3 5 3 10 11 11 9
5 5 3 5 5 4 5 8 7 7 5 4 6 6 7 8 8 7 6 5 4 5 3 5 4 4 6 7 10 13 13 10
7 6 9 6 3 6 10 8 9 9 5 7 8 8 7 7 8 7 7 7 6 4 6 9 7 4 4 8 11 12 13 11
5 2 4 13 12 10 11 12 8 7 10 7 9 11 7 9 8 4 5 6 6 8 7 10 2 1 3 7 10 13 11 9
6 9 14 18 16 17 15 10 8 8 11 12 15 10 10 12 12 6 3 5 9 11 11 6 13 7 7 10 12 8 13 12
Wind_Direction
225 258 150 224 187 187 152 76 52 247 296 305 292 151 181 214 200 203 199 195 191 184 183 177 177 180 179 179 184 187 192 189
278 188 238 162 179 138 360 203 284 294 294 250 329 233 228 218 203 196 197 199 192 191 182 175 182 179 180 183 186 188 188 193
27 197 199 331 267 165 127 142 181 232 267 227 255 244 188 182 215 193 186 192 189 190 189 177 179 179 181 182 180 188 189 191
221 258 215 132 73 128 125 290 229 183 265 332 314 15 287 202 195 166 178 182 184 185 180 174 181 180 182 181 181 190 190 189
342 350 6 74 113 156 122 92 176 140 270 308 15 350 13 343 248 169 168 176 170 172 181 182 180 179 182 184 187 185 185 188
198 241 256 298 331 287 114 88 268 222 279 293 305 349 1 360 347 23 67 50 178 179 183 177 178 178 183 186 185 182 185 188
289 285 342 308 346 284 185 214 164 252 230 271 243 107 124 132 266 230 101 117 154 189 182 173 177 181 182 184 182 183 184 190
275 293 342 317 312 315 330 64 315 343 325 273 320 302 19 64 113 20 305 176 149 172 174 174 177 181 178 180 183 181 185 195
267 350 346 334 117 24 313 271 239 304 242 265 282 314 195 19 168 232 242 317 254 184 178 180 180 176 177 179 173 182 190 192
254 4 242 252 311 289 271 288 21 19 341 239 275 277 191 258 240 199 210 243 292 194 153 165 163 179 168 162 175 182 188 185
184 195 281 334 9 345 325 105 5 292 23 340 318 52 340 346 324 310 298 202 220 274 160 149 145 150 158 166 175 182 187 187
146 191 229 62 313 313 292 53 346 22 4 351 335 64 302 322 326 328 45 57 38 353 315 160 168 165 165 175 172 190 190 188
347 329 8 272 322 316 191 238 328 55 19 353 360 240 286 309 316 325 359 8 104 358 295 341 319 171 177 180 185 180 157 141
9 7 280 344 8 46 288 280 24 29 245 266 231 272 299 304 309 318 335 315 260 250 262 294 341 334 184 186 169 142 143 137
224 244 283 358 125 298 7 343 317 284 297 301 283 287 286 278 294 293 301 312 297 306 304 352 26 345 297 233 141 133 132 134
327 257 274 290 319 22 356 335 319 316 310 288 284 291 291 296 301 296 283 259 230 279 287 279 292 321 268 155 149 143 138 138
244 276 310 243 329 300 311 308 303 309 290 281 272 281 266 279 281 282 281 282 287 219 228 245 221 214 350 166 170 152 142 143
255 267 247 286 289 284 284 285 277 305 305 283 270 270 268 277 278 279 277 270 285 270 276 294 141 307 307 209 174 150 140 149
241 248 263 263 264 272 265 250 264 273 276 280 289 266 264 273 281 287 307 244 242 255 288 321 294 287 240 243 172 157 157 162